Simultaneous Nadir Overpasses (SNOs) Predictions

Prediction of SNOs between METOP-B and TERRA Satellite Orbit:

Table of predicted SNOs for the next 14.0 days since TLE Epoch: 12/22/2018
Index Date (METOP-B) Time (METOP-B) Lat,Lon (METOP-B) SZA (METOP-B ) Date (TERRA) Time (TERRA) Lat,Lon (TERRA) SZA (TERRA ) Distance(km) Time Diff (sec)
1 12/24/2018 07:29:15 -81.24, -67.52 72.95 12/24/2018 07:30:29 -81.18, -67.38 72.96 8.06 74
2 12/24/2018 08:19:50 81.28, 102.10 107.32 12/24/2018 08:19:50 81.29, 102.22 107.34 2.28 0
3 12/24/2018 09:10:30 -81.29, -90.27 72.65 12/24/2018 09:09:17 -81.29, -90.21 72.68 1.02 73
4 12/27/2018 03:03:34 -81.28, 0.80 72.85 12/27/2018 03:04:39 -81.27, 0.69 72.84 1.80 65
5 12/27/2018 03:54:14 81.28, 168.43 107.19 12/27/2018 03:54:05 81.28, 168.42 107.18 0.49 9
6 12/29/2018 22:37:59 -81.28, 67.15 73.04 12/29/2018 22:38:54 -81.28, 67.25 73.00 1.81 55
7 12/29/2018 23:28:38 81.28,-124.87 107.04 12/29/2018 23:28:20 81.28,-125.04 107.01 2.92 18
8 01/01/2019 18:12:23 -81.28, 133.87 73.24 01/01/2019 18:13:09 -81.28, 133.78 73.23 1.55 46
9 01/01/2019 19:03:03 81.28, -58.58 106.79 01/01/2019 19:02:35 81.29, -58.53 106.78 0.88 28
10 01/04/2019 13:46:47 -81.28,-159.81 73.55 01/04/2019 13:47:23 -81.29,-159.72 73.52 1.86 36




NCC Satellite Simultaneous Nadir Overpasses (SNOs) Prediction Service
